Skip Page Navigation
NASA JPL Caltech
NASA Logo - Jet Propulsion Laboratory + View the NASA Portal
+ Center for Near-Earth Object Studies
JPL Home Earth Solar System Stars & Galaxies Technology
JPL Solar System Dynamics
BODIES ORBITS EPHEMERIDES TOOLS PHYSICAL DATA DISCOVERY FAQ SITE MAP
IMPORTANT: The SSD Announcement email list is now available. Major changes are coming in the near future, including possible hostname and/or URL changes. To be notified of such changes, subscribe to this email list.

Please visit this page for more details.


JPL Small-Body Database Browser
Search: [ help ]  
312710 (2010 PE65)
Classification: Main-belt Asteroid          SPK-ID: 2312710
Ephemeris | Orbit Diagram | Orbital Elements | Mission Design | Physical Parameters | Discovery Circumstances | Close-Approach Data ]

[ show orbit diagram ]
Orbital Elements at Epoch 2458600.5 (2019-Apr-27.0) TDB
Reference: JPL 8 (heliocentric ecliptic J2000)
 Element Value Uncertainty (1-sigma)   Units 
e .06023252191899643 6.1588e-08  
a 2.895588004169317 3.8877e-08 au
q 2.721179436239806 1.9092e-07 au
i 1.285935029634601 7.5489e-06 deg
node 354.3031623014543 0.00030338 deg
peri 278.0559082334444 0.00031032 deg
M 337.8103616543089 6.5216e-05 deg
tp 2458711.430584996386
(2019-Aug-15.93058500)
0.00032655 TDB
period 1799.714352102267
4.93
3.6245e-05
9.923e-08
d
yr
n .2000317436928143 4.0285e-09 deg/d
Q 3.069996572098829 4.1218e-08 au
  Orbit Determination Parameters
   # obs. used (total)      169  
   data-arc span      7356 days (20.14 yr)  
   first obs. used      1998-01-30  
   last obs. used      2018-03-22  
   planetary ephem.      DE431  
   SB-pert. ephem.      SB431-N16  
   condition code      0  
   norm. resid. RMS      .57991  
   source      ORB  
   producer      Otto Matic  
   solution date      2019-Jul-13 15:11:15  

Additional Information
 Earth MOID = 1.70481 au 
 Jupiter MOID = 1.98635 au 
 T_jup = 3.286 
[ show covariance matrix ]

Ephemeris | Orbit Diagram | Orbital Elements | Mission Design | Physical Parameters | Discovery Circumstances | Close-Approach Data ]

Physical Parameter Table
Parameter Symbol Value Units Sigma Reference Notes
absolute magnitude H 16.5   n/a MPO434004  

312710 (2010 PE65)          Discovered 2005-Sep-11 by Spacewatch at Kitt Peak
Reference: 20120109/Numbers.arcLast Updated: 2012-01-11

[ show close-approach data ]
Ephemeris | Orbit Diagram | Orbital Elements | Mission Design | Physical Parameters | Discovery Circumstances | Close-Approach Data ]
ABOUT SSD CREDITS/AWARDS PRIVACY/COPYRIGHT GLOSSARY LINKS
FirstGov 2019-Dec-12 21:56 UT
(server date/time)  
NASA Home Page
Site Manager:   Ryan S. Park
Webmaster  Alan B. Chamberlin